Wind_Speed
29 29 30 30 30 29 28 26 24 22 21 19 18 17 16 15 15 14 14 15 17 18 19 19 18 19 19 16 14 13 12 12 12 12 15 12 8 9 8 8 10 12 12 12 13 14 16 16 17 18 14 9 8 7 10 9 6 6 3 1 1 5 3 1 3 3 2 2 4 6 5 5 7 4 4 10 11 12 10 9 9 9 14 19 24 32 33 32
29 30 31 31 31 30 29 27 25 22 21 20 19 18 17 16 16 15 15 15 16 17 18 19 18 19 18 15 12 11 10 12 15 16 20 17 12 11 11 12 12 10 15 16 16 17 16 15 16 16 11 7 8 8 9 7 7 7 4 3 3 4 1 2 4 7 5 4 5 5 7 6 8 10 9 11 11 12 11 9 10 13 18 23 27 32 32 31
29 30 31 32 32 31 30 28 25 23 21 20 19 19 18 18 17 17 16 16 16 17 18 18 17 18 16 12 11 8 9 12 14 13 11 13 16 16 14 13 12 12 18 18 17 18 16 15 16 14 10 8 8 9 10 7 7 7 6 5 4 4 2 2 4 7 10 5 6 5 2 4 6 8 8 11 15 13 11 10 12 17 21 24 25 27 31 30
29 30 31 32 32 32 30 28 26 24 22 20 19 19 19 19 19 19 18 18 17 17 17 17 16 16 13 11 9 6 8 11 6 2 3 5 11 14 14 12 11 14 21 20 17 17 17 15 14 13 10 8 8 9 10 7 6 6 7 5 3 7 4 3 5 6 12 9 6 5 0 3 3 4 4 2 10 11 8 11 13 20 24 25 25 25 28 27
29 30 32 33 33 32 31 29 26 24 22 20 20 20 20 20 20 20 20 19 17 17 16 15 15 14 11 10 7 5 8 5 3 7 4 3 6 8 12 13 11 15 21 22 19 17 17 15 12 12 9 8 9 9 9 9 8 6 8 7 6 9 5 7 8 9 13 10 7 8 5 4 1 6 6 2 3 6 5 11 15 20 24 24 26 24 24 24
29 31 32 33 34 33 32 30 26 23 21 20 20 20 21 21 22 22 20 19 17 15 14 13 13 12 9 10 7 5 7 3 5 5 6 6 6 7 11 13 13 17 19 20 19 17 16 14 12 10 8 9 10 9 9 10 9 7 9 8 6 7 5 9 9 11 12 8 6 6 5 5 5 7 8 4 5 6 2 11 17 19 23 23 25 24 23 23
29 31 32 33 34 33 32 30 27 24 21 20 20 20 22 23 23 22 19 17 14 13 12 11 10 10 8 10 6 6 9 5 4 5 10 8 6 7 11 13 15 19 18 19 18 16 14 14 13 10 9 9 10 11 11 10 11 9 10 8 3 4 6 8 9 11 10 12 10 7 6 5 7 7 7 7 9 10 6 10 17 19 22 23 22 23 23 23
29 31 32 33 33 33 32 29 27 24 21 20 20 21 22 24 23 20 17 14 12 11 9 7 7 8 8 8 7 7 8 3 5 5 9 8 4 5 9 11 15 19 18 19 17 15 14 14 14 10 9 10 9 11 11 10 11 11 12 11 5 9 12 10 9 11 7 14 13 8 6 2 4 6 7 8 9 11 9 9 17 19 21 21 21 22 22 22
29 31 32 33 33 33 32 29 27 23 22 21 20 22 24 25 22 18 15 13 10 8 5 6 7 8 8 6 8 7 1 4 5 3 6 6 3 4 10 11 16 19 17 19 18 16 13 12 13 12 10 10 11 11 11 10 9 11 13 12 10 10 11 14 13 11 8 7 11 13 9 6 6 5 5 8 8 10 10 10 16 19 20 21 19 21 20 21
30 31 32 32 33 33 31 29 26 22 21 21 21 23 25 26 21 17 14 11 7 4 4 7 9 8 8 7 8 5 4 6 4 3 4 2 2 5 11 11 16 19 16 17 17 17 13 11 12 11 10 11 11 10 11 10 9 11 11 9 12 12 9 10 11 11 9 6 7 14 15 12 10 7 4 8 11 11 12 12 15 17 18 19 18 19 19 19
30 31 32 32 33 33 31 29 25 22 21 21 22 24 26 25 19 16 13 9 6 4 6 12 10 8 9 8 9 4 6 6 5 4 2 1 3 7 10 11 15 18 16 15 16 17 15 14 11 8 8 8 10 11 11 12 12 13 11 10 11 11 11 12 10 10 9 7 7 14 15 9 9 9 7 10 13 13 14 13 16 16 16 17 18 18 16 16
30 31 32 32 33 32 30 28 24 22 21 21 23 24 26 23 17 15 12 8 6 7 11 13 8 6 9 9 9 3 8 7 5 4 3 4 5 7 8 10 14 17 16 14 14 16 16 16 14 10 9 7 9 8 7 9 12 13 12 12 12 11 12 13 14 11 10 9 10 15 11 7 7 9 10 12 12 12 14 13 15 16 16 15 16 16 14 15
30 31 31 32 33 32 30 27 24 22 20 21 24 25 25 20 16 14 11 8 8 11 12 8 4 5 8 6 3 3 8 6 2 4 5 5 6 7 8 9 13 16 16 14 12 13 15 16 15 13 12 10 9 6 6 7 9 11 11 10 10 10 11 13 14 13 12 10 12 11 5 6 8 9 11 12 12 11 11 14 14 14 14 14 15 14 14 15
30 30 30 32 32 31 30 26 23 22 20 22 24 25 23 19 16 13 9 8 9 10 7 4 3 5 8 5 1 4 5 3 2 5 5 4 6 7 9 9 11 14 15 16 13 11 13 15 15 12 11 11 11 11 10 8 7 9 10 9 8 8 9 12 14 15 14 11 14 11 6 6 9 11 11 12 13 10 10 14 15 14 13 13 14 15 14 15
29 29 29 30 32 31 29 25 22 21 21 23 25 23 21 18 15 11 8 8 9 8 5 5 6 6 8 6 4 0 2 4 4 4 3 5 8 8 9 10 11 12 13 14 13 11 11 13 13 10 10 11 11 12 10 7 7 8 8 8 9 8 9 12 13 16 15 11 15 13 5 5 10 12 12 13 15 12 10 9 11 13 15 14 13 14 14 15
30 30 29 30 31 30 29 25 22 20 22 25 24 22 20 18 15 11 9 9 9 7 4 6 10 10 7 2 4 4 5 3 2 3 5 7 9 8 7 10 10 11 13 13 12 10 10 10 10 9 10 10 9 9 8 7 7 8 9 8 9 10 9 10 12 16 17 11 13 12 6 4 9 14 14 14 17 16 11 6 7 8 12 14 13 13 14 14
31 30 30 30 30 31 29 25 21 20 23 25 24 22 20 18 16 13 11 11 10 7 8 10 10 9 7 5 3 5 4 6 7 7 7 7 9 9 5 8 9 10 12 12 10 9 9 8 7 8 9 8 8 8 7 8 7 7 9 9 10 12 10 9 11 13 17 12 9 10 7 4 7 14 17 15 16 16 12 9 10 7 7 12 13 13 14 15
33 31 30 30 30 31 29 26 21 19 23 25 23 24 23 19 16 15 13 11 8 8 11 12 11 6 5 6 5 3 6 7 5 5 4 5 8 9 6 7 7 9 11 9 9 10 9 7 7 8 8 8 9 9 9 10 10 9 9 9 10 12 12 11 11 9 17 13 10 10 8 6 7 12 17 15 16 16 13 12 11 9 9 10 12 14 15 15
34 31 31 31 31 31 30 27 21 18 23 24 23 25 23 16 11 11 12 9 6 6 5 5 7 5 2 1 3 5 6 5 5 5 4 4 6 8 9 9 7 10 10 7 9 11 8 7 8 8 8 10 12 12 13 13 13 14 11 10 10 11 12 12 13 10 16 13 11 12 10 8 7 9 16 15 15 15 13 13 11 10 8 4 5 10 14 16
33 32 31 31 31 31 30 28 22 18 21 23 26 24 14 7 3 4 6 9 9 7 7 3 3 7 6 1 4 8 7 6 7 4 3 3 6 8 9 9 8 9 9 8 9 10 8 8 9 10 11 14 16 17 17 16 15 17 15 12 12 12 11 12 15 13 15 12 11 14 11 8 4 8 14 14 16 16 14 15 12 11 8 4 1 7 11 16
33 32 31 31 32 31 30 27 21 16 17 21 25 16 5 7 6 4 6 8 9 6 7 5 5 7 5 5 7 9 6 6 4 1 1 2 6 7 7 9 9 8 9 11 9 9 10 10 11 13 15 16 16 17 17 17 16 17 15 12 12 11 11 13 15 15 13 11 9 15 15 13 11 12 13 14 16 16 16 16 13 13 9 6 6 5 11 13
32 31 32 32 31 30 29 26 19 15 15 18 17 7 7 10 8 7 8 9 10 6 7 5 6 6 2 3 4 4 7 6 4 4 2 3 8 7 6 8 9 8 10 12 9 8 10 11 14 15 16 16 16 16 17 18 16 14 12 11 11 8 10 12 15 17 11 9 7 13 13 12 13 13 12 15 15 14 16 17 14 14 9 6 9 6 11 11
31 31 31 31 31 30 28 25 18 14 14 15 10 4 8 9 9 10 7 7 10 9 9 8 7 5 1 1 1 3 9 7 2 6 5 4 8 5 6 8 9 9 10 12 11 10 8 10 15 16 15 16 17 17 17 16 13 12 11 10 9 10 11 8 12 18 12 9 10 13 12 9 9 10 12 15 15 13 16 16 14 13 11 9 10 11 11 10
30 31 30 31 31 28 26 23 17 12 13 14 6 6 8 9 9 10 7 6 8 7 7 5 5 4 2 2 2 6 8 5 3 3 4 5 6 3 7 8 9 10 10 13 14 14 12 10 13 16 17 17 17 17 17 13 10 12 14 12 10 12 14 10 8 14 13 12 13 13 9 8 10 11 12 13 12 12 15 15 15 13 12 10 9 12 14 12
31 30 30 30 29 28 26 20 13 8 9 9 3 7 9 10 9 9 7 6 6 5 6 3 3 2 2 3 5 6 6 5 5 1 2 5 7 4 6 6 7 9 10 14 15 13 14 13 12 15 17 18 17 15 16 13 9 10 14 15 15 15 15 15 14 11 10 11 14 13 9 6 13 17 15 12 12 13 13 15 17 15 11 9 8 10 13 15
31 30 29 28 26 27 22 10 8 14 12 6 6 9 10 9 8 7 5 5 4 5 7 5 4 2 1 2 5 5 6 4 3 1 1 4 6 5 6 5 5 9 11 11 10 8 11 14 14 14 15 18 18 15 15 15 10 9 10 14 17 18 16 16 17 12 8 8 11 14 10 6 10 17 18 15 14 16 16 16 18 15 11 8 7 9 12 15
31 30 29 26 21 22 15 8 13 17 10 6 9 10 10 9 8 5 5 5 3 5 7 5 3 2 1 1 3 7 5 1 1 4 3 1 2 4 6 7 6 7 9 8 7 6 9 14 15 15 15 15 14 13 14 15 11 8 9 11 15 18 19 18 16 12 8 9 10 13 13 8 7 11 18 20 17 17 16 16 17 15 14 12 10 13 15 14
31 30 29 25 16 12 12 12 16 14 9 11 11 10 10 8 6 4 5 3 2 4 3 4 3 2 3 2 6 8 5 3 4 3 3 1 3 4 6 8 9 10 10 8 8 8 10 14 15 16 15 11 11 12 14 16 13 10 12 13 11 11 15 16 14 11 9 10 10 11 14 9 6 9 13 20 20 19 19 20 20 18 18 17 14 15 17 17
32 30 27 24 14 7 10 12 12 12 11 13 11 10 11 9 6 4 5 3 3 3 0 2 3 4 5 6 7 6 5 5 4 2 2 6 6 5 7 7 10 13 13 11 10 10 10 10 12 15 14 10 11 13 14 15 13 10 13 15 10 7 9 10 11 10 10 10 10 12 14 9 6 8 11 15 17 19 20 20 21 22 21 18 15 16 17 17
31 29 26 22 14 8 10 12 13 12 11 11 11 12 11 8 5 5 5 2 4 4 1 2 2 2 4 8 7 5 4 4 2 3 4 6 7 7 7 7 8 10 10 11 12 13 14 13 10 11 12 12 12 13 15 16 15 11 12 13 11 8 6 6 7 8 9 10 11 15 16 11 8 8 9 11 13 16 17 16 18 22 23 21 18 18 19 17
30 27 23 18 12 9 11 8 6 9 11 12 13 12 10 5 4 6 3 2 3 2 3 2 2 1 4 7 3 3 3 3 2 5 6 6 7 8 8 7 6 7 8 9 10 12 15 15 11 8 11 14 12 12 14 13 12 10 10 10 9 7 5 5 6 7 9 9 10 14 17 14 11 8 7 10 14 17 16 17 21 23 25 24 21 21 20 18
28 24 20 14 9 8 11 10 10 13 12 12 11 8 7 4 6 6 1 2 2 1 1 4 4 2 3 6 3 2 3 2 1 4 6 5 4 5 5 2 1 4 6 6 8 10 12 13 13 10 11 14 12 9 10 10 9 11 10 9 9 7 6 6 7 7 9 9 9 13 15 14 11 9 12 14 11 13 13 16 22 24 24 23 22 21 18 18
25 20 14 6 7 9 11 12 12 12 10 10 9 6 5 5 5 4 1 2 2 3 2 3 3 3 3 4 1 3 3 3 1 4 5 5 7 5 0 5 7 6 6 6 7 6 8 12 15 14 10 11 13 9 8 9 11 13 11 9 9 8 7 8 8 7 9 9 11 15 14 12 10 10 16 20 12 11 15 16 20 22 25 25 22 22 20 19
21 13 8 3 8 12 12 11 10 10 10 9 7 5 6 6 2 1 3 7 6 3 1 2 3 4 5 4 3 3 4 2 2 5 5 4 7 5 2 8 9 7 7 7 7 6 7 8 13 15 11 11 14 12 10 11 11 12 11 10 9 8 7 7 6 7 8 8 12 16 13 10 9 8 13 18 16 12 13 14 17 17 21 25 22 22 21 20
17 9 7 6 12 15 14 13 9 8 8 6 6 6 5 3 4 4 5 6 5 4 3 1 5 7 6 4 2 2 3 2 2 3 6 6 6 2 4 8 9 8 7 5 5 6 10 10 6 9 13 15 15 13 13 13 10 9 10 9 10 9 8 7 8 9 9 8 9 11 9 8 7 7 11 15 16 15 13 12 15 17 22 25 22 21 20 18
16 9 7 8 10 8 8 9 7 6 7 5 5 5 2 3 7 6 5 6 6 7 7 5 5 6 5 5 5 5 3 3 3 3 5 6 6 2 8 8 7 9 8 6 6 6 8 10 9 10 12 14 16 16 15 14 10 6 10 11 10 11 10 8 10 11 10 9 8 8 9 9 8 9 12 14 16 16 14 14 13 16 24 25 22 21 20 19
15 11 9 7 5 6 3 5 5 5 6 5 5 5 2 4 8 8 6 7 5 4 8 6 1 3 4 1 3 7 5 4 2 2 5 4 3 2 6 7 6 8 9 8 5 6 8 10 13 15 13 11 11 15 17 17 15 8 8 10 10 12 11 8 7 8 10 9 6 8 11 10 9 7 10 15 17 17 16 17 16 14 21 23 22 21 20 19
14 12 9 5 6 6 2 3 5 5 5 5 6 6 4 4 8 8 7 7 5 3 7 5 3 3 5 4 3 7 4 3 3 3 6 1 2 7 7 4 6 8 8 9 6 6 9 10 12 13 12 11 11 13 15 18 19 16 11 8 8 10 10 8 7 7 9 8 6 10 12 10 9 8 10 16 18 17 18 18 16 11 16 20 21 20 19 18
12 8 4 2 5 3 0 2 5 5 4 5 4 2 1 5 9 9 8 7 5 5 5 5 3 0 3 5 5 5 5 4 5 5 5 2 2 5 8 5 6 8 9 9 7 7 8 7 9 12 13 12 10 10 11 12 15 17 16 12 9 8 8 9 8 7 7 8 7 9 10 8 7 7 11 16 18 16 17 16 14 12 12 16 19 18 17 17
9 5 1 5 4 1 1 4 5 5 5 4 3 3 4 6 7 8 9 7 5 4 5 7 5 2 4 6 5 4 4 3 4 5 4 5 2 3 8 8 6 8 10 9 8 7 7 6 8 13 14 11 8 7 9 10 11 12 13 12 10 8 7 8 9 9 8 7 7 7 8 7 5 7 9 13 15 15 14 12 11 14 16 17 19 18 17 16
7 3 3 4 2 1 4 6 5 5 4 3 2 5 7 6 6 6 6 5 5 3 3 6 5 4 6 7 5 5 6 5 5 4 4 5 2 2 8 11 8 8 9 8 7 5 4 6 8 11 10 9 9 9 9 9 9 9 10 12 12 10 8 8 8 11 10 8 7 7 7 6 5 7 8 9 11 13 14 13 10 13 17 16 17 18 16 16
6 2 4 3 2 4 8 6 3 2 3 4 5 7 5 4 5 6 4 4 4 2 2 5 3 3 4 4 5 6 5 6 6 5 5 6 4 7 7 8 8 7 7 6 6 6 7 6 7 9 10 12 16 17 17 17 18 16 11 9 12 12 11 9 7 9 10 10 10 8 8 7 3 4 8 12 11 13 15 15 13 12 14 14 16 19 18 17
2 3 4 3 4 7 8 3 1 2 4 4 5 7 5 3 4 6 5 5 3 1 3 4 4 4 3 3 5 6 6 5 5 6 7 7 5 11 9 8 8 6 6 5 4 7 6 5 7 8 10 12 18 21 21 19 16 14 11 10 11 11 11 11 9 9 9 11 11 7 8 8 4 7 2 6 7 10 12 14 15 13 13 13 13 15 16 18
6 4 3 2 6 9 5 3 2 2 3 3 3 3 2 4 6 5 6 7 6 4 5 4 5 6 5 5 4 4 6 5 4 6 6 7 4 9 11 10 9 7 5 5 6 6 5 5 6 7 8 8 10 13 14 14 10 8 9 11 11 14 18 16 11 8 9 11 12 10 9 8 2 5 4 2 5 10 9 9 13 13 13 15 14 14 11 14
6 4 1 1 4 3 3 5 4 3 4 4 3 2 2 5 6 6 5 5 5 6 6 4 3 2 2 6 6 4 7 7 6 7 6 7 9 10 11 10 9 7 5 8 9 7 5 6 6 7 8 8 8 6 6 7 6 7 11 13 12 16 19 14 9 6 7 10 11 8 7 8 6 2 2 2 7 6 3 4 9 9 9 11 12 11 11 12
4 1 2 2 1 4 5 3 5 6 5 3 2 5 4 3 7 7 4 4 5 5 6 4 5 5 3 6 7 6 7 6 5 6 6 7 8 7 7 8 8 8 9 9 9 6 5 6 8 10 10 10 10 9 11 12 10 10 15 17 15 14 17 13 7 7 7 9 11 7 2 6 8 5 5 7 7 4 3 5 3 3 5 6 3 0 3 8
3 3 5 3 2 4 4 4 6 6 7 5 2 4 6 4 6 7 2 3 5 5 5 4 6 8 7 7 6 5 6 6 6 7 8 7 8 7 7 8 9 9 9 8 6 5 5 7 11 15 15 16 19 19 18 16 14 15 17 19 17 15 17 15 9 10 11 8 10 9 3 6 8 4 7 3 6 7 6 8 6 4 6 7 1 5 5 5
4 3 4 3 3 4 5 6 7 6 8 7 5 4 5 6 8 5 2 2 4 4 4 4 4 5 6 7 6 5 6 7 6 6 7 7 8 8 8 9 9 7 6 8 8 6 6 8 12 15 17 18 20 21 19 16 15 17 18 19 19 17 17 16 14 16 14 8 11 12 6 9 8 7 13 11 5 5 1 5 5 1 5 2 2 5 5 3
6 3 5 6 3 3 4 3 5 6 8 5 4 7 8 7 7 5 2 2 5 4 4 6 5 5 6 6 6 6 6 6 5 4 5 7 8 8 7 8 10 8 6 7 8 7 6 8 12 14 16 18 19 19 19 17 16 17 19 20 19 18 18 17 17 19 18 15 18 17 10 10 7 6 10 11 11 10 9 10 12 11 10 10 7 7 10 9
6 4 6 8 5 5 4 4 5 4 5 3 3 5 6 6 7 7 4 4 6 5 3 6 7 7 7 7 7 8 6 6 7 5 5 8 8 6 5 5 7 8 7 6 6 6 5 7 11 12 12 15 17 18 18 17 16 17 19 20 20 19 19 18 17 17 16 16 17 16 13 10 4 5 6 7 10 10 11 12 15 15 14 14 11 10 13 12
7 6 7 7 4 5 4 4 4 3 2 5 5 5 4 4 6 7 6 6 7 6 5 7 7 6 7 8 8 8 7 7 8 9 9 9 9 6 4 4 6 7 7 6 5 6 6 6 9 9 9 11 14 17 18 17 17 18 19 20 20 19 16 15 15 15 14 15 15 15 14 9 4 2 1 3 7 10 13 14 13 12 12 13 12 10 8 8
9 7 8 6 1 2 3 3 3 2 3 5 4 4 4 4 5 6 5 3 3 3 5 8 7 4 6 9 8 8 8 8 10 11 10 10 12 10 8 10 12 10 9 8 6 5 6 7 7 7 8 10 12 16 16 15 15 14 14 16 19 19 17 17 17 16 17 16 13 11 11 7 6 5 3 5 8 10 12 10 9 10 11 12 12 11 10 9
Wind_Direction
1 0 359 358 358 357 356 356 355 354 352 350 347 347 347 343 338 331 326 321 321 322 325 329 329 329 327 326 320 314 317 301 287 258 239 245 240 244 249 226 230 231 211 199 214 201 185 201 203 210 213 209 227 234 242 234 218 223 218 212 240 275 288 46 277 257 231 240 203 157 147 173 147 141 138 132 137 139 148 144 137 141 135 133 133 140 146 148
0 359 358 357 357 356 356 355 354 352 350 348 345 345 344 341 336 330 324 320 320 321 324 325 327 329 326 326 321 317 316 288 272 261 248 251 254 255 253 241 245 226 199 206 217 202 190 197 198 207 210 212 222 219 238 223 204 229 243 222 195 252 286 132 275 288 257 201 209 184 166 195 169 160 148 136 147 149 147 142 144 139 127 128 136 143 147 151
359 358 357 357 356 355 355 354 352 349 347 346 344 344 341 338 334 328 322 318 317 318 322 322 324 326 325 324 323 324 312 288 269 258 248 242 242 250 252 244 245 219 199 208 214 204 201 201 195 205 209 219 225 215 229 209 196 221 235 245 196 189 152 171 248 281 280 243 190 202 194 237 206 170 145 144 154 151 146 143 150 141 132 137 143 145 149 155
358 357 356 356 355 354 354 353 350 347 345 343 343 342 339 337 333 329 324 318 315 315 319 319 320 323 322 320 328 333 294 284 271 141 119 213 236 247 243 240 242 212 201 213 223 213 211 210 199 206 214 225 230 223 231 211 200 213 228 261 133 145 140 181 223 253 271 267 196 178 176 261 235 131 91 143 154 139 134 140 146 142 141 145 145 149 153 157
357 355 355 356 355 354 353 352 350 346 343 341 342 341 338 336 333 330 324 319 317 314 315 313 315 318 311 315 334 321 280 278 101 95 72 271 263 251 230 235 237 205 202 216 232 226 218 220 206 207 220 235 235 226 229 219 225 240 248 262 137 148 167 175 196 223 231 240 212 175 174 207 156 106 101 314 169 123 120 142 148 144 144 149 148 153 156 159
356 354 354 355 355 354 353 351 349 346 343 341 340 339 337 335 333 331 325 319 314 311 313 311 311 308 302 317 327 279 267 302 85 75 3 317 290 266 225 227 219 198 204 218 233 233 219 219 213 211 219 235 244 239 231 217 229 253 259 259 143 154 196 167 188 226 208 199 221 184 180 198 154 138 144 162 136 125 158 144 147 144 146 153 150 155 159 161
355 353 353 355 354 353 353 351 349 347 343 341 338 337 335 334 333 331 330 323 315 313 312 309 306 296 306 320 305 244 248 280 72 58 355 330 290 269 221 214 200 191 205 215 228 233 216 215 215 214 220 230 243 247 249 233 228 240 257 266 118 158 225 178 195 230 182 167 208 178 156 187 145 145 163 155 130 142 175 144 146 148 148 154 154 158 161 161
354 352 353 354 353 353 352 350 349 347 344 340 337 335 333 334 333 332 334 328 320 319 313 312 302 291 313 320 284 251 238 273 61 59 9 4 325 262 204 199 194 191 205 213 223 229 215 215 216 216 222 230 239 242 250 250 238 236 252 261 198 189 205 185 201 240 195 168 188 143 110 273 168 156 163 144 120 140 164 149 149 151 151 155 159 162 162 162
353 352 352 354 353 352 351 350 348 346 343 339 336 334 332 334 333 331 333 329 325 326 327 319 298 294 311 301 276 274 236 43 32 34 21 23 3 217 185 184 191 193 205 212 223 231 219 216 218 220 229 241 250 249 249 247 245 235 238 251 243 228 203 178 186 225 244 190 162 130 131 241 215 150 153 142 114 136 155 151 152 155 156 157 161 165 165 166
353 351 350 353 352 351 350 348 348 345 342 337 335 333 331 333 332 329 330 329 329 324 337 325 306 296 291 274 269 277 51 28 337 353 11 24 83 164 183 183 188 195 205 211 223 231 225 223 222 224 240 257 264 265 262 251 259 259 249 248 248 260 247 205 194 204 230 232 157 136 147 186 186 142 150 144 129 150 152 150 160 160 160 160 164 165 167 170
352 350 349 351 351 350 349 347 346 343 340 335 332 332 331 333 330 327 327 323 319 296 312 317 302 285 279 272 270 287 34 359 307 317 345 178 146 170 191 185 186 198 207 212 223 231 230 231 232 233 233 249 264 267 271 265 269 274 275 270 251 253 258 249 239 210 209 226 162 135 135 156 177 159 163 148 147 163 153 157 169 163 162 164 166 164 168 174
351 350 347 349 350 349 348 345 344 340 338 332 329 332 332 331 327 325 322 310 302 294 306 311 297 272 278 270 257 310 4 333 304 293 258 221 207 191 203 194 191 204 212 217 224 229 233 236 238 244 238 240 251 254 284 282 268 265 262 267 265 258 250 242 244 226 211 217 161 140 137 145 172 167 163 158 158 158 151 165 171 164 165 165 167 164 170 176
350 349 346 347 348 348 347 343 340 337 335 329 328 332 332 329 324 321 314 300 301 305 308 309 288 253 272 279 239 359 337 313 316 281 242 229 229 207 219 213 199 209 221 232 236 229 232 239 243 248 255 260 257 265 310 297 265 260 254 255 263 263 251 231 230 225 219 211 159 149 166 162 169 166 162 162 156 150 163 174 169 167 168 166 169 165 173 178
348 348 346 345 345 347 346 340 338 335 332 328 327 331 332 327 323 318 302 298 307 310 312 297 259 239 260 269 115 33 333 275 239 239 220 234 244 214 214 222 214 215 225 240 249 243 234 239 249 255 258 262 271 282 287 271 251 253 249 245 246 251 256 237 218 211 218 208 177 186 213 180 172 164 163 164 154 158 180 174 166 171 169 169 170 166 177 179
347 348 346 344 343 346 344 339 334 332 331 327 325 330 328 322 321 314 287 294 308 307 311 287 240 227 264 246 183 48 285 235 217 210 219 263 249 217 203 217 222 220 226 238 249 256 244 236 242 249 253 255 264 275 276 268 252 244 240 237 232 234 251 250 225 203 207 206 191 202 221 189 174 161 168 164 154 170 187 165 156 169 171 173 171 168 178 178
347 347 346 344 342 343 343 338 331 329 330 326 325 327 323 315 313 306 284 284 304 305 290 267 228 220 273 328 159 217 260 280 329 273 254 264 256 238 207 207 215 220 225 230 239 257 255 240 237 241 248 249 248 250 254 259 246 229 232 235 229 232 233 246 242 207 199 200 191 202 212 192 175 162 173 170 160 174 183 154 140 160 173 176 173 172 177 178
346 347 345 343 341 341 342 338 329 326 327 325 325 324 319 310 299 294 284 278 294 285 248 261 259 234 255 308 250 225 308 346 346 305 258 242 252 255 223 201 209 211 215 223 228 243 247 235 232 237 239 242 239 236 235 241 239 219 221 236 237 240 235 237 248 206 184 189 190 211 216 183 192 174 173 174 167 175 177 164 158 163 192 184 175 177 177 179
346 346 344 342 341 339 340 338 328 322 324 323 323 322 318 308 292 286 280 275 279 255 243 254 270 269 242 275 283 282 345 348 331 306 252 223 239 252 239 212 211 202 204 217 217 223 230 219 220 229 226 229 232 228 226 225 232 228 213 225 234 243 247 240 247 193 168 184 190 205 211 189 219 187 168 173 173 175 174 167 168 178 201 192 183 184 178 181
344 344 343 341 340 338 338 337 328 318 318 320 325 324 316 302 280 265 256 242 228 247 268 225 232 289 304 262 326 316 319 320 289 259 213 224 225 235 238 222 211 202 201 204 200 206 215 210 216 228 221 218 221 220 229 231 239 251 239 231 229 233 244 239 248 210 169 189 193 186 205 201 222 189 163 170 178 175 171 172 179 188 193 181 197 203 182 181
343 344 342 340 339 337 336 334 330 318 311 314 322 321 310 302 280 235 245 239 238 273 304 282 254 300 305 322 341 317 282 238 258 259 185 220 216 220 228 218 209 203 208 210 196 197 211 220 213 221 225 220 222 224 235 244 247 261 263 252 240 232 241 233 245 233 177 187 193 170 191 192 202 219 179 174 184 176 175 182 179 175 179 136 125 260 208 182
343 343 342 340 338 336 333 331 329 315 303 306 310 313 345 2 345 348 339 287 263 269 275 291 307 290 305 338 327 321 289 220 225 331 87 210 219 216 199 201 215 202 211 220 209 195 207 231 223 221 230 229 231 228 235 249 250 259 266 267 258 241 245 234 243 244 185 186 203 167 183 188 180 214 197 180 189 179 180 189 171 159 167 141 131 265 249 196
343 343 342 339 337 335 330 328 323 304 301 298 290 302 17 2 336 327 329 297 285 269 243 263 275 260 297 325 295 303 289 260 210 163 114 227 221 216 179 193 225 213 208 217 219 209 204 229 234 226 231 232 238 236 232 242 248 255 258 263 268 256 253 236 239 251 201 175 204 164 175 195 186 205 202 191 191 182 190 190 164 151 154 148 150 199 253 226
344 344 341 338 337 333 327 326 317 293 291 292 292 356 4 345 333 321 307 284 286 257 228 234 243 244 241 263 261 264 274 285 226 129 102 251 235 231 209 207 233 229 217 214 214 222 216 221 230 232 235 230 235 240 237 238 239 249 252 250 257 257 264 241 223 244 228 186 198 182 178 188 191 214 214 203 195 187 196 182 152 151 158 166 178 195 219 227
345 344 341 338 335 330 328 324 304 272 260 269 299 28 358 337 335 325 306 277 276 244 216 220 234 251 322 322 284 265 276 298 294 91 92 256 260 278 247 233 242 237 227 226 223 231 238 226 219 226 235 235 233 234 237 241 233 233 241 246 250 248 260 273 249 243 238 209 195 195 201 179 175 201 210 209 203 198 199 178 155 156 161 164 185 204 202 201
345 344 341 338 334 329 328 317 297 295 281 267 325 20 352 344 340 330 311 271 254 210 176 176 215 230 326 291 237 254 284 265 256 353 65 277 295 307 272 252 248 250 239 233 231 235 244 238 221 218 224 232 237 234 229 235 243 234 230 235 250 256 257 271 276 264 250 223 193 193 223 199 172 188 201 202 200 204 204 187 171 156 154 165 176 198 203 195
344 343 341 338 334 330 326 317 320 322 308 312 13 357 345 349 342 330 306 264 227 165 158 179 193 176 235 231 221 267 284 222 191 320 224 277 299 292 283 265 232 250 256 247 242 241 242 241 235 228 223 224 231 237 231 229 240 244 231 223 236 255 262 266 273 272 264 248 211 196 214 229 186 187 191 185 193 204 197 187 180 160 153 172 178 194 206 198
342 342 340 336 333 333 328 324 325 315 308 5 6 340 341 348 338 320 274 252 207 157 158 163 146 142 178 151 241 274 301 62 197 236 201 148 292 257 261 262 244 246 257 258 250 240 233 237 238 235 230 226 226 230 229 229 236 242 248 234 223 234 248 256 266 271 273 279 257 210 202 221 224 203 185 173 185 202 192 185 183 170 163 171 187 200 198 195
339 341 340 334 330 323 301 297 311 312 334 358 344 333 342 337 317 281 258 270 153 156 158 120 97 209 229 256 259 264 307 310 248 200 155 217 248 237 246 257 267 266 259 254 251 247 233 228 232 235 234 232 231 230 223 228 238 238 247 255 243 233 239 244 252 262 269 275 270 231 213 216 226 225 194 173 178 190 194 193 185 176 171 171 189 202 192 189
339 340 339 333 327 298 276 280 290 300 327 339 329 332 330 310 293 251 256 285 147 151 73 109 138 189 227 251 232 240 284 261 235 109 200 233 216 229 262 271 283 284 275 269 265 264 253 232 226 233 238 235 233 238 229 225 236 237 245 260 268 258 249 246 243 251 261 260 260 248 237 235 229 221 202 185 184 187 193 196 185 176 173 174 188 200 194 188
337 339 339 332 320 308 291 263 256 283 315 326 324 322 308 290 276 239 239 241 138 131 124 145 138 156 236 251 203 185 271 257 284 310 251 239 202 205 258 272 276 283 278 272 269 270 276 274 251 229 237 243 233 237 236 229 232 233 235 250 257 245 243 259 248 241 250 247 248 253 250 250 248 226 203 201 201 189 185 187 182 174 171 175 186 194 193 187
336 336 335 323 300 302 302 270 269 314 321 320 319 310 291 266 245 256 248 137 122 134 173 131 47 186 255 278 225 148 258 230 276 282 252 240 206 201 235 236 228 254 257 255 255 258 269 277 271 234 231 245 238 233 239 233 230 234 229 233 244 235 221 248 251 236 242 241 235 245 252 253 250 242 229 219 201 189 183 177 179 179 175 178 184 187 186 184
334 332 326 308 272 270 281 289 324 330 321 315 312 297 280 244 228 250 224 168 184 105 117 81 53 10 330 290 253 70 316 234 151 294 284 273 245 224 238 230 257 268 253 248 243 241 247 253 259 246 224 234 239 226 231 231 218 227 233 227 229 226 209 220 227 224 235 242 234 236 243 246 249 254 260 254 211 189 199 184 178 181 176 176 181 180 182 186
336 331 321 287 237 253 267 283 306 314 314 305 291 275 269 260 240 250 9 68 61 44 27 52 39 357 336 285 261 62 310 279 27 326 324 303 281 262 206 31 0 304 280 302 292 254 230 224 237 249 233 220 231 226 217 220 210 213 222 220 221 222 216 216 218 227 237 237 230 230 235 241 245 242 250 261 250 207 214 198 184 184 172 169 179 180 183 187
336 329 316 246 234 253 261 275 291 297 301 291 273 261 254 258 283 320 48 60 52 35 52 33 328 295 260 271 27 39 283 302 44 320 310 274 264 253 127 53 21 325 295 305 304 282 266 234 212 224 227 211 219 230 232 228 215 211 217 221 223 224 229 228 217 220 233 236 223 220 225 232 236 224 229 250 253 233 225 201 186 182 163 161 174 181 183 185
340 324 298 259 250 251 246 256 275 284 284 275 264 266 257 273 5 23 37 42 24 4 27 338 286 272 239 208 100 48 319 6 88 297 285 259 263 294 71 58 34 1 330 311 313 309 290 277 219 211 234 225 211 217 238 246 233 201 205 222 225 222 232 247 252 248 245 243 225 215 220 227 237 238 225 233 240 241 246 225 190 165 153 159 171 179 184 186
340 321 282 252 258 269 251 254 269 266 264 267 266 266 273 20 19 25 14 354 3 3 334 297 258 257 229 176 161 126 112 279 287 309 284 256 258 357 68 58 24 12 5 336 320 327 298 287 320 331 287 247 215 202 214 239 248 202 200 218 226 230 236 242 257 270 268 254 233 221 222 217 223 237 226 221 228 229 237 245 223 174 158 163 170 177 184 186
334 322 293 263 293 330 297 256 254 240 249 266 274 281 311 27 20 18 5 343 354 347 304 292 270 293 292 214 143 109 117 255 290 326 277 236 226 350 67 82 50 29 11 347 318 325 327 301 306 317 302 277 244 213 203 220 242 244 214 204 212 231 241 248 254 256 257 255 244 235 232 217 207 216 217 216 221 219 216 234 238 192 163 165 169 172 180 183
317 310 293 282 330 338 279 222 230 229 243 261 270 284 305 25 28 15 5 348 334 310 297 308 28 343 304 300 28 56 22 308 45 1 291 244 82 12 29 57 42 35 12 351 324 316 330 306 294 298 294 299 283 237 209 211 228 247 254 227 214 225 223 228 245 244 244 251 246 242 242 231 214 202 202 210 216 213 206 218 228 196 158 159 164 168 176 178
292 281 277 342 351 355 137 223 233 237 248 270 289 301 359 49 41 15 2 356 332 307 306 330 10 356 281 312 357 14 323 314 4 334 309 340 33 48 43 4 347 9 9 353 325 312 319 298 291 294 292 311 310 258 223 207 216 238 256 256 248 251 235 221 224 235 246 251 250 245 241 242 237 213 199 203 210 211 204 209 215 201 172 158 160 168 177 179
279 259 52 18 348 90 79 258 245 255 252 268 330 35 52 56 54 27 10 0 331 321 339 347 348 334 330 341 353 344 306 313 343 313 311 335 310 92 55 28 357 352 356 340 308 295 291 279 282 286 292 308 306 264 233 216 208 216 235 251 250 249 260 251 228 219 231 248 253 250 241 233 240 239 215 197 197 201 205 214 208 197 192 173 164 172 179 184
286 285 42 12 316 220 293 268 245 260 249 249 350 44 37 24 27 31 32 358 334 11 358 322 319 328 332 331 350 8 344 322 326 309 283 293 287 63 30 28 16 352 349 324 301 315 301 280 281 282 286 284 269 269 268 268 278 256 230 236 241 233 241 255 239 217 218 235 245 261 264 238 225 238 218 184 185 191 199 219 220 201 201 190 176 177 180 183
273 328 24 3 307 283 293 282 248 305 24 32 39 52 29 346 352 6 28 349 333 46 339 306 321 335 331 348 358 358 344 312 307 307 292 303 29 59 33 26 16 346 341 314 307 6 356 299 283 278 274 280 285 294 298 300 306 295 270 251 246 233 224 229 240 229 217 220 230 251 266 255 305 293 205 176 183 190 188 203 217 213 211 206 191 185 184 179
304 28 55 30 315 289 291 298 101 43 41 27 43 51 17 350 8 6 19 4 341 21 323 324 28 17 1 39 10 337 331 324 305 306 310 309 39 60 33 21 19 336 325 323 321 6 353 277 269 278 276 284 287 289 290 288 288 291 295 286 263 256 251 237 237 249 235 220 217 227 249 251 340 347 279 153 170 189 180 190 208 213 215 218 213 204 192 175
345 345 75 39 292 280 294 358 32 60 64 43 63 84 66 36 13 357 11 5 357 0 331 332 31 24 354 341 344 331 321 322 296 291 311 309 346 27 10 10 18 343 332 12 1 356 337 274 274 275 266 270 265 263 270 270 271 284 288 275 266 281 278 249 231 262 261 238 226 218 227 236 286 357 1 49 212 202 170 177 204 212 210 208 215 228 211 172
314 284 104 33 280 295 21 22 2 18 58 53 31 27 117 100 53 22 359 352 7 354 332 340 350 337 330 316 308 310 314 324 317 297 317 325 321 347 351 351 358 331 321 6 355 329 297 289 295 275 256 249 236 237 269 280 294 302 301 302 292 289 287 265 240 264 265 256 256 239 220 232 237 211 156 232 248 228 147 177 206 208 216 207 199 222 223 181
308 318 10 13 46 42 55 50 8 18 42 42 11 9 10 108 91 64 357 353 38 348 317 347 327 309 19 353 313 310 319 321 312 292 300 309 300 318 336 326 320 300 299 333 337 311 285 280 278 273 270 270 274 296 312 314 315 302 304 310 296 294 319 318 279 261 266 264 260 246 213 260 254 214 182 214 229 239 310 303 260 202 232 234 183 206 252 175
315 15 12 5 11 20 50 44 6 22 28 356 1 27 343 335 62 77 69 9 26 344 322 7 349 331 3 1 320 313 317 298 286 286 284 286 289 296 294 283 278 279 290 304 296 278 278 268 263 264 266 270 277 287 294 297 298 290 293 297 288 297 323 322 302 296 306 301 264 241 209 265 275 34 37 291 203 186 226 258 264 222 205 225 224 42 28 136
350 21 31 5 333 0 29 15 356 39 47 6 3 16 336 354 29 41 86 7 340 358 4 0 355 336 341 345 324 309 306 291 288 309 309 307 311 307 297 290 287 279 272 272 263 255 260 261 260 262 262 264 270 277 282 283 284 283 284 285 286 295 302 299 298 295 296 300 276 263 240 246 257 58 40 0 20 83 351 296 301 188 128 86 60 88 57 81
2 19 16 343 329 44 54 11 349 43 59 13 359 17 359 7 19 5 28 344 316 7 14 319 326 342 330 325 308 293 295 293 303 339 327 307 305 300 297 302 303 299 286 273 266 257 258 265 264 263 266 267 267 272 277 278 278 279 280 280 282 289 290 289 291 289 289 288 276 271 263 250 244 87 54 7 16 33 13 10 23 37 49 33 36 72 46 37
7 32 357 329 349 33 31 22 358 20 67 22 2 37 6 348 5 357 340 318 322 353 352 307 320 331 319 309 292 285 297 305 310 315 288 280 287 287 290 299 301 299 295 285 272 254 246 271 276 273 273 271 269 271 273 274 276 274 275 278 279 279 278 278 280 281 283 281 275 274 268 250 225 85 55 9 8 14 11 26 37 34 27 15 12 28 30 34
17 36 353 325 3 14 343 22 11 317 49 33 15 32 5 348 16 352 315 318 338 343 325 315 327 328 311 301 285 286 302 306 298 292 284 284 288 283 266 253 258 273 275 265 258 243 231 257 275 274 273 271 269 268 266 268 271 268 265 268 270 270 270 270 273 274 273 272 269 264 257 249 261 287 264 335 348 9 21 28 29 19 10 1 352 357 14 29
15 27 360 328 359 38 326 6 24 344 48 60 37 11 350 351 4 340 313 324 329 304 301 314 325 324 301 298 299 308 316 309 299 297 295 290 286 281 268 260 261 265 268 263 258 249 243 253 260 258 265 271 270 270 270 265 260 258 256 256 259 263 264 263 265 269 271 270 266 257 248 250 287 315 21 7 353 21 31 22 6 352 350 346 341 354 13 18
Height
807 804 802 800 798 796 794 792 790 788 787 785 784 783 781 780 778 777 776 774 772 771 769 768 767 766 764 763 761 760 760 759 758 757 754 747 744 745 745 746 746 748 750 750 750 749 750 750 749 747 746 747 748 747 743 739 739 750 768 787 794 788 779 772 768 763 762 760 755 754 756 758 759 757 744 737 745 748 747 746 743 740 739 744 750 755 760 764
807 804 802 800 798 795 794 792 790 788 786 785 783 782 781 779 778 776 775 773 772 770 769 767 766 765 763 762 761 760 759 758 757 753 747 743 743 744 744 745 746 747 748 749 748 746 747 748 745 745 746 749 747 744 745 739 740 753 764 777 784 776 766 763 764 759 755 758 756 752 752 755 756 753 746 751 757 752 754 753 747 747 746 748 752 757 761 764
807 804 802 799 797 795 793 791 789 787 785 784 783 781 780 779 777 775 774 772 771 769 768 766 765 764 763 762 761 760 759 758 755 747 742 742 743 743 743 744 745 746 747 747 746 744 744 744 742 744 747 751 746 743 746 739 741 750 755 769 768 759 758 758 759 759 754 752 755 754 750 753 752 740 742 754 756 755 759 756 753 756 755 755 755 757 761 764
807 804 802 799 797 794 792 790 788 786 784 783 782 781 779 777 776 775 773 771 770 769 767 766 765 764 763 761 761 760 759 758 750 740 740 741 741 742 742 743 743 745 746 746 746 744 742 740 740 742 748 753 745 741 745 739 740 744 748 758 753 749 759 759 754 755 754 751 751 754 754 756 750 738 742 749 754 762 758 750 751 754 754 755 756 757 760 763
807 804 802 799 797 794 792 790 787 785 784 782 781 780 778 777 775 773 772 770 769 767 766 765 764 763 762 761 761 760 761 760 745 736 740 740 740 740 740 741 742 744 745 746 745 742 741 738 739 744 750 753 747 744 744 734 733 742 741 741 741 745 755 754 750 750 752 753 750 752 757 754 746 743 747 752 758 762 752 745 745 746 750 752 754 758 759 763
807 804 801 799 796 794 791 789 786 784 783 781 780 778 777 776 773 772 770 769 767 766 765 764 763 762 762 761 761 760 762 756 739 736 740 738 739 738 738 740 740 743 744 746 745 741 740 738 742 748 752 753 750 745 740 729 729 744 740 730 735 741 746 746 743 743 746 755 754 751 751 745 748 753 749 751 754 749 741 739 740 742 747 749 751 756 759 762
807 804 801 799 796 793 791 788 786 784 782 780 779 777 776 774 772 771 769 767 766 765 764 763 762 761 761 761 760 760 759 749 735 738 739 736 738 736 737 739 739 742 744 744 743 741 739 740 745 747 751 754 750 744 736 728 727 741 742 730 733 738 742 740 737 737 739 752 752 744 749 749 756 759 749 747 747 742 738 736 739 742 745 749 753 756 759 762
806 804 801 799 796 793 790 788 785 783 781 780 778 776 775 773 771 770 768 767 765 764 764 762 762 761 761 761 759 757 753 743 735 738 737 736 736 735 737 737 739 741 741 743 741 739 738 742 744 743 751 752 744 740 734 731 732 736 739 729 728 733 736 733 732 733 732 743 745 743 753 756 755 754 748 748 744 740 739 737 739 742 746 752 755 757 759 762
806 804 801 798 795 792 790 787 785 783 781 779 777 775 773 772 770 769 768 766 764 764 763 762 762 761 762 761 758 755 746 737 737 738 737 737 736 735 736 737 739 740 740 741 738 737 737 741 741 738 747 744 737 736 731 737 740 730 728 725 723 725 724 727 731 731 729 733 742 753 762 758 749 749 752 747 743 742 740 741 741 743 749 753 756 757 758 761
806 803 800 798 795 792 790 787 785 782 780 779 776 774 772 770 769 768 767 765 764 764 762 763 762 761 762 759 759 756 742 735 738 737 737 738 736 736 736 737 739 739 739 739 737 735 734 736 734 729 737 738 735 735 730 735 733 719 718 721 721 721 717 720 724 726 729 727 735 752 761 755 744 751 761 749 741 743 744 748 746 746 751 753 755 756 758 760
806 803 800 797 795 792 789 787 784 782 780 778 776 774 772 769 768 766 765 765 764 763 763 762 761 761 761 758 759 753 739 736 738 736 738 737 737 737 736 737 738 739 738 736 736 733 731 730 726 728 737 738 736 736 731 726 723 718 719 723 721 720 719 717 719 720 726 730 730 736 748 752 746 753 759 747 741 743 746 751 748 749 752 752 755 756 758 759
806 803 800 797 795 791 789 786 784 782 780 777 776 773 771 769 767 765 765 764 763 763 762 761 761 761 760 758 754 745 737 738 738 737 737 736 736 737 736 736 737 738 737 734 733 731 731 728 725 734 736 732 737 741 732 720 720 721 722 732 729 723 724 720 718 716 720 730 725 726 749 760 754 753 749 740 740 741 746 751 748 750 752 752 755 756 758 758
805 803 800 797 794 791 788 785 783 781 779 777 774 772 770 768 766 765 764 763 763 762 761 760 760 760 761 756 744 739 739 738 738 737 737 736 735 735 735 736 735 737 736 733 731 729 730 728 727 733 729 731 737 732 724 717 722 726 725 734 737 736 733 718 713 714 717 722 714 727 763 770 755 747 741 736 738 743 751 751 749 751 751 753 755 757 760 758
805 803 800 797 794 791 788 785 783 780 778 776 773 771 770 767 766 764 763 763 762 761 760 760 760 760 761 752 739 738 739 737 738 737 736 736 734 734 735 735 734 735 735 733 731 728 729 728 727 731 728 731 732 724 725 726 727 732 733 735 740 749 740 713 706 714 719 715 706 729 764 764 750 744 736 734 737 744 752 749 749 752 752 753 754 758 760 758
805 802 800 797 793 790 787 785 782 779 777 775 772 771 769 767 766 763 763 762 761 761 760 760 759 758 757 747 737 738 738 735 736 735 735 735 733 732 733 734 734 733 734 733 731 729 728 728 731 737 735 729 730 737 742 740 733 734 744 747 741 745 739 714 701 706 718 713 703 727 758 755 744 741 734 732 737 744 749 748 748 752 753 754 754 757 760 758
804 802 799 796 793 790 787 784 782 779 776 773 771 770 768 766 765 763 763 761 761 761 760 760 756 756 757 746 736 737 736 734 734 734 735 734 733 731 730 732 732 733 734 732 732 730 728 729 732 735 737 735 739 747 750 750 745 736 743 750 740 737 737 724 704 694 704 713 711 726 752 754 742 737 733 730 737 743 748 750 749 752 753 754 755 756 759 760
804 801 798 796 793 790 787 784 782 779 775 772 770 767 766 765 763 762 761 760 761 759 759 757 751 753 752 740 736 738 734 733 734 733 733 733 733 730 729 731 731 731 732 731 732 732 730 732 736 736 737 741 741 745 757 765 756 740 738 742 735 730 731 728 713 693 694 713 723 728 741 748 738 731 732 731 734 742 748 752 751 753 755 753 753 755 757 759
804 801 798 795 792 790 787 784 781 778 775 771 768 766 764 762 762 761 760 759 760 759 759 755 752 758 754 740 738 738 733 734 735 733 733 733 733 732 730 730 730 731 734 736 735 735 736 734 738 743 744 746 744 746 760 761 749 740 737 738 736 728 725 725 715 696 696 714 729 736 742 745 736 728 730 731 733 741 746 750 752 753 755 753 752 754 755 758
803 800 798 795 792 789 786 784 781 778 775 770 767 764 760 759 760 760 758 758 759 759 758 753 751 757 752 741 737 734 733 735 735 733 732 732 732 732 730 729 729 733 740 745 742 737 738 740 745 751 751 748 744 742 745 741 734 731 725 726 731 729 723 717 706 691 695 715 728 736 743 742 739 734 732 733 733 739 745 747 752 754 755 755 756 755 753 756
802 799 797 794 791 788 785 783 781 778 775 770 766 763 760 760 760 758 757 755 752 749 748 745 744 745 742 737 735 734 733 734 733 730 730 731 731 732 731 730 732 737 742 746 744 735 736 748 752 751 747 741 736 734 731 728 727 726 722 720 719 722 721 709 701 687 686 713 725 729 739 742 746 742 733 734 735 739 746 748 752 755 755 757 761 762 756 753
801 799 796 792 790 787 784 782 780 778 775 772 769 765 763 765 766 764 760 754 744 740 742 741 739 741 738 737 735 734 733 733 731 728 730 730 729 734 735 733 740 745 742 740 738 733 738 751 749 740 736 731 728 727 727 728 727 728 727 725 718 717 715 703 698 686 680 707 721 721 736 744 747 746 735 733 737 740 744 748 752 753 755 757 761 769 764 753
801 798 794 792 789 786 783 780 779 777 774 772 770 766 764 766 768 766 765 761 747 739 741 740 739 739 735 735 735 734 736 737 734 730 729 730 731 736 737 736 744 744 738 738 739 740 746 750 740 730 727 726 725 723 725 729 729 731 728 729 727 716 710 702 695 685 680 703 718 720 736 741 737 738 735 734 736 738 737 740 746 749 754 758 758 767 769 758
801 797 794 791 788 785 782 779 778 776 773 770 767 766 766 767 766 765 765 765 754 741 739 741 741 740 737 737 735 735 739 738 736 732 728 732 733 733 736 739 742 740 737 739 742 746 749 743 731 724 722 725 728 724 724 728 729 732 730 732 732 718 715 714 702 689 682 694 709 716 730 738 735 735 734 731 729 731 732 733 739 743 750 755 754 758 763 760
799 796 794 790 787 785 780 778 775 773 772 769 767 767 768 768 766 766 765 763 757 743 736 736 737 738 739 737 735 738 740 735 734 733 728 732 733 731 734 736 738 740 737 734 736 740 739 728 719 721 723 724 729 727 726 730 731 730 728 730 729 718 715 712 700 692 687 689 697 710 730 740 742 746 739 729 726 728 729 731 738 742 745 749 751 752 754 757
798 796 793 789 787 783 779 778 773 771 770 766 766 767 768 768 766 767 767 765 759 745 737 737 737 739 737 736 737 735 737 735 731 730 727 729 733 734 734 730 735 742 736 731 733 736 731 717 711 721 725 724 729 729 725 729 733 730 724 721 721 717 713 709 702 701 708 710 698 707 741 748 738 745 744 732 732 734 731 732 738 743 744 746 749 750 749 751
798 796 792 790 787 781 778 775 772 772 769 765 767 767 768 769 767 768 769 769 760 746 744 744 742 742 738 737 735 732 740 740 729 726 728 730 730 734 739 733 732 739 733 727 728 728 723 713 711 718 723 724 729 728 721 722 733 735 718 710 715 716 716 714 709 711 723 721 694 695 734 745 730 732 733 729 734 737 735 736 737 741 746 748 748 748 746 745
798 795 792 790 786 784 780 776 775 772 768 767 768 768 769 768 768 768 772 777 764 745 744 745 741 743 740 737 734 738 751 745 731 728 727 731 730 731 742 740 734 735 726 728 736 728 718 717 717 717 720 724 728 729 720 716 731 733 712 704 712 716 720 719 716 719 719 712 698 692 712 734 734 723 715 721 735 737 736 739 738 739 744 747 747 745 743 743
797 794 792 789 786 786 784 780 778 772 769 770 769 770 769 768 769 769 777 784 763 740 741 742 739 739 737 735 734 739 744 738 740 737 724 728 732 731 742 741 736 734 723 731 745 727 712 719 722 719 723 725 723 720 714 714 725 723 707 703 706 709 716 716 719 723 716 718 724 707 701 729 738 716 702 713 732 740 738 737 738 737 739 742 743 739 737 739
795 793 790 787 785 784 783 781 779 774 772 771 770 771 769 768 769 769 781 783 754 738 742 741 740 741 738 737 737 738 736 733 740 736 725 728 729 730 740 736 733 735 725 728 738 725 711 710 712 716 723 722 717 711 707 713 720 712 705 706 705 707 712 715 721 725 724 734 741 719 704 726 737 715 703 711 722 731 730 725 727 730 731 734 737 735 733 733
792 790 788 786 784 783 782 780 778 775 773 772 772 771 768 770 771 778 789 775 746 741 742 739 743 744 742 742 740 740 739 737 735 731 730 730 727 729 733 729 731 737 732 729 731 726 713 704 702 709 715 711 709 708 705 707 709 706 710 716 716 714 715 720 722 724 739 748 740 722 707 720 736 717 699 703 704 707 715 718 718 721 726 730 731 731 729 730
790 789 788 786 784 784 782 777 775 775 774 773 773 770 770 772 775 785 783 755 742 748 743 742 747 743 743 746 744 743 742 739 737 737 737 732 731 734 734 733 736 740 741 737 734 728 719 715 710 705 705 704 706 710 706 701 703 710 717 723 730 729 728 737 736 735 755 757 735 721 710 720 739 720 693 688 682 683 698 710 714 717 720 723 724 723 723 725
789 787 786 785 783 783 781 776 774 775 775 774 773 770 773 778 780 778 761 742 751 756 745 748 751 745 746 746 744 745 745 744 741 741 741 737 737 736 736 740 742 751 755 743 735 732 726 722 714 705 701 701 710 719 716 709 710 719 723 728 743 749 751 762 760 752 758 751 728 720 719 726 730 711 690 682 674 673 681 690 700 708 712 715 715 717 718 720
787 784 783 782 781 780 779 777 776 777 775 774 774 771 775 786 780 760 745 745 757 754 745 750 750 747 751 749 748 748 748 747 744 744 742 741 742 736 735 738 740 753 758 745 740 738 731 722 714 714 708 700 709 723 729 724 719 724 726 732 747 757 767 776 768 759 756 742 723 715 721 730 725 705 689 681 673 669 667 671 680 688 698 709 709 711 714 714
784 782 781 780 780 779 777 777 777 777 775 774 775 774 780 785 769 747 746 753 755 749 748 752 752 751 752 751 752 751 752 751 746 749 749 746 747 742 740 744 745 748 750 749 747 741 744 736 718 717 713 703 707 715 719 717 714 717 714 721 736 743 756 764 757 756 754 738 723 718 723 730 724 703 682 673 668 663 661 661 665 671 682 697 703 706 709 710
783 781 780 779 778 776 775 776 775 775 776 774 775 778 780 777 762 754 759 757 753 752 751 750 753 755 752 750 752 751 755 758 750 751 753 748 748 745 747 754 753 752 755 761 756 744 749 737 709 706 706 699 706 708 706 712 716 712 706 719 731 725 731 741 736 731 730 731 725 719 718 711 700 686 670 668 667 662 662 659 660 669 676 686 698 702 705 708
783 780 779 778 775 774 773 775 774 775 775 773 779 782 774 767 763 762 764 759 757 759 758 755 754 756 753 751 753 753 756 759 752 753 754 747 745 746 753 761 759 758 763 770 766 757 758 742 712 711 709 696 700 703 703 714 718 711 712 725 720 707 714 733 735 720 719 734 727 710 710 702 694 689 673 669 673 667 667 665 662 668 674 682 691 696 699 702
783 780 778 775 772 773 773 773 773 774 773 774 782 778 763 759 762 762 761 759 758 759 762 764 759 758 757 753 754 755 757 758 755 759 756 748 749 750 753 760 761 762 765 769 768 761 764 756 727 719 720 701 691 697 701 704 708 713 719 716 708 707 712 724 740 737 735 745 728 707 709 707 709 708 684 674 680 675 671 669 664 663 670 681 686 689 693 695
784 782 778 773 772 771 771 773 773 772 772 775 779 771 758 759 763 762 762 761 759 760 763 766 764 763 762 758 757 757 759 761 761 764 758 751 757 759 758 761 761 762 763 768 770 761 763 768 742 722 724 710 693 700 709 703 700 707 708 700 706 727 731 728 742 749 748 750 734 714 708 702 702 701 688 682 683 676 672 670 666 663 670 681 685 687 690 691
785 782 777 772 771 771 771 773 771 770 774 776 774 768 762 763 766 765 764 763 763 764 766 766 764 764 763 761 762 762 762 765 767 769 764 758 763 765 765 768 765 764 764 767 772 766 764 776 762 730 721 720 711 711 718 715 707 707 706 702 706 719 724 724 729 735 743 748 740 726 717 705 689 677 676 680 676 672 672 670 668 666 669 679 684 686 688 689
781 778 775 771 770 771 771 771 770 772 776 774 768 766 764 766 769 768 767 767 767 767 771 770 767 767 767 765 765 765 764 766 769 772 770 764 766 768 769 772 772 770 770 769 772 770 766 775 773 745 726 731 732 720 714 715 715 716 719 719 717 714 713 716 716 716 727 741 740 734 727 707 678 659 660 666 666 666 668 668 668 666 665 671 678 682 684 685
779 777 774 771 770 771 770 771 771 770 771 770 766 768 770 771 771 770 770 770 768 768 771 773 771 772 773 771 769 770 771 772 772 774 773 765 765 773 775 775 777 776 776 775 772 772 772 775 775 762 747 744 735 716 707 710 713 716 718 718 719 716 718 732 732 713 711 726 730 731 730 703 666 651 651 655 660 662 663 666 666 663 663 665 668 674 677 679
780 778 775 771 770 770 769 771 767 762 768 773 771 773 776 776 774 773 772 772 771 771 770 771 772 773 775 776 776 777 779 781 778 776 775 767 767 777 779 777 779 779 779 780 774 773 779 781 780 772 758 747 734 718 713 715 716 716 713 710 711 709 712 731 740 721 710 717 714 719 728 701 659 646 647 648 653 655 658 664 666 664 662 660 661 666 669 672
776 774 772 771 771 768 770 772 767 765 773 775 773 776 777 777 777 777 776 776 775 775 774 773 773 775 776 777 780 783 783 785 784 780 778 774 773 778 779 778 781 780 780 782 778 778 783 783 784 779 762 748 738 727 719 716 718 723 720 713 712 711 707 711 718 714 712 715 713 724 736 707 665 650 647 645 649 650 653 659 664 666 663 660 660 661 662 666
779 775 770 771 770 765 770 777 773 772 776 774 774 778 779 779 781 781 783 783 780 779 779 777 777 780 781 779 781 785 786 788 787 781 781 782 778 777 778 780 784 784 784 788 787 788 791 787 787 789 782 770 758 747 736 727 725 730 725 714 711 712 711 706 705 713 719 713 708 724 734 708 673 659 655 653 654 653 653 655 660 663 662 661 661 659 658 661
787 780 771 767 765 763 770 775 772 772 776 779 780 779 779 783 785 784 786 785 783 784 784 781 780 781 783 783 782 783 785 791 792 785 785 789 785 781 781 783 786 786 785 789 789 790 795 795 794 797 796 787 773 764 758 748 741 737 729 722 719 718 717 712 712 726 733 719 707 715 721 702 677 668 667 665 662 658 658 657 657 658 658 657 659 659 657 657
785 780 777 770 764 765 771 772 771 774 779 783 785 782 782 785 785 785 787 787 785 786 785 783 782 781 785 789 790 790 790 793 797 794 794 797 794 788 787 788 789 789 787 788 790 792 796 797 796 797 795 786 774 767 764 759 758 754 743 735 730 725 724 725 729 733 730 722 714 708 709 706 692 681 678 673 669 668 668 666 662 660 659 656 657 659 656 654
783 784 786 783 778 775 775 775 776 780 783 785 788 790 788 785 785 787 789 789 788 788 787 786 787 790 794 797 799 801 799 797 799 799 799 799 796 792 790 789 789 789 789 790 790 794 801 801 794 791 789 782 774 768 763 761 763 759 751 744 735 729 734 741 745 738 730 737 732 706 699 711 705 694 693 685 676 675 676 673 668 665 662 659 658 660 658 656
786 787 785 787 790 789 787 787 784 783 788 790 790 793 792 789 791 795 794 791 788 788 792 794 794 795 798 801 805 807 806 804 804 804 803 802 800 798 794 791 789 788 791 793 790 791 800 800 790 785 783 775 769 765 761 761 761 755 752 749 741 738 740 742 742 734 730 744 740 710 699 708 703 699 703 696 683 680 679 674 668 663 662 663 662 664 664 662
792 792 786 785 789 790 789 789 785 784 792 797 797 798 799 796 798 797 794 795 794 792 797 803 800 797 799 802 807 809 810 809 808 808 808 808 805 803 802 799 794 790 791 794 791 789 795 796 786 782 782 774 768 765 760 760 760 757 753 748 743 743 743 741 738 730 727 732 724 706 702 703 696 695 699 694 686 682 681 678 674 672 672 671 670 671 674 673
802 802 800 794 789 788 788 787 787 789 793 798 801 804 804 803 803 801 797 798 800 798 799 803 801 799 801 803 807 809 807 805 806 806 805 807 805 802 804 805 802 799 797 798 795 792 796 798 788 782 784 779 770 766 762 761 762 760 756 750 746 745 744 740 736 730 729 727 715 706 709 705 693 690 691 691 689 687 688 689 688 687 685 683 682 682 684 683
807 807 808 806 800 797 796 792 791 794 798 802 805 807 807 806 807 809 804 799 801 804 803 801 801 801 803 804 806 806 801 798 801 799 796 799 798 797 800 802 802 805 803 800 799 795 796 798 792 790 795 788 773 768 764 760 760 761 757 752 748 746 744 740 734 727 726 724 718 715 716 708 696 690 691 694 695 696 700 701 699 697 693 692 692 690 690 690
811 809 809 810 807 802 798 794 792 797 805 810 811 811 811 809 807 810 811 804 800 802 802 798 798 803 807 808 806 803 798 796 797 794 792 793 791 790 793 792 791 795 797 794 795 794 795 798 795 795 800 790 775 769 763 760 766 766 755 747 744 742 741 737 730 724 720 719 719 718 710 701 697 697 701 706 706 707 709 707 706 705 702 699 697 695 696 696